TimeEST,TemperatureF,Dew PointF,Humidity,Sea Level PressureIn,VisibilityMPH,Wind Direction,Wind SpeedMPH,Gust SpeedMPH,PrecipitationIn,Events,Conditions,WindDirDegrees,DateUTC
12:53 AM,21.9,16.0,78,30.27,10.0,Calm,Calm,-,N/A,,Clear,0,2013-01-03 05:53:00
1:53 AM,19.9,16.0,85,30.27,10.0,Calm,Calm,-,N/A,,Clear,0,2013-01-03 06:53:00
2:53 AM,19.0,16.0,88,30.28,8.0,Calm,Calm,-,N/A,,Clear,0,2013-01-03 07:53:00
3:53 AM,19.9,16.0,85,30.25,9.0,Calm,Calm,-,N/A,,Clear,0,2013-01-03 08:53:00
4:53 AM,19.0,16.0,88,30.27,7.0,Calm,Calm,-,N/A,,Clear,0,2013-01-03 09:53:00
5:53 AM,17.1,15.1,92,30.27,5.0,Calm,Calm,-,N/A,,Clear,0,2013-01-03 10:53:00
6:53 AM,17.6,15.8,93,30.27,5.0,Calm,Calm,-,N/A,,Clear,0,2013-01-03 11:53:00
7:53 AM,17.1,15.1,92,30.30,5.0,Calm,Calm,-,N/A,,Clear,0,2013-01-03 12:53:00
8:53 AM,19.0,17.1,92,30.31,6.0,Calm,Calm,-,N/A,,Clear,0,2013-01-03 13:53:00
9:53 AM,25.0,19.9,81,30.30,9.0,South,3.5,-,N/A,,Clear,190,2013-01-03 14:53:00
10:53 AM,30.0,17.1,59,30.31,10.0,SW,5.8,-,N/A,,Clear,230,2013-01-03 15:53:00
11:53 AM,34.0,17.1,50,30.28,10.0,WSW,6.9,-,N/A,,Clear,240,2013-01-03 16:53:00
12:53 PM,35.1,15.1,44,30.27,10.0,West,9.2,-,N/A,,Clear,260,2013-01-03 17:53:00
1:02 PM,35.6,17.6,48,30.25,10.0,SW,11.5,-,N/A,,Clear,230,2013-01-03 18:02:00
1:53 PM,36.0,19.0,50,30.26,10.0,WSW,16.1,-,N/A,,Clear,250,2013-01-03 18:53:00
2:53 PM,36.0,21.9,57,30.27,10.0,WSW,15.0,-,N/A,,Partly Cloudy,250,2013-01-03 19:53:00
3:53 PM,35.1,21.9,59,30.30,10.0,West,12.7,-,N/A,,Partly Cloudy,270,2013-01-03 20:53:00
4:53 PM,34.0,21.0,59,30.30,10.0,WSW,10.4,-,N/A,,Clear,250,2013-01-03 21:53:00
5:53 PM,33.1,19.9,59,30.32,10.0,West,5.8,-,N/A,,Mostly Cloudy,260,2013-01-03 22:53:00
6:53 PM,33.1,21.0,61,30.33,10.0,WSW,5.8,-,N/A,,Overcast,250,2013-01-03 23:53:00
7:53 PM,33.1,21.9,64,30.34,10.0,WSW,8.1,-,N/A,,Overcast,240,2013-01-04 00:53:00
8:53 PM,33.1,23.0,66,30.34,10.0,WSW,11.5,-,N/A,,Overcast,250,2013-01-04 01:53:00
9:53 PM,33.1,21.9,64,30.35,10.0,West,12.7,-,N/A,,Overcast,280,2013-01-04 02:53:00
10:53 PM,32.0,21.9,66,30.36,10.0,NW,10.4,20.7,N/A,,Overcast,310,2013-01-04 03:53:00
11:53 PM,32.0,21.9,66,30.36,10.0,WSW,8.1,-,N/A,,Overcast,250,2013-01-04 04:53:00